Skip Page Navigation
NASA JPL Caltech
NASA Logo - Jet Propulsion Laboratory + View the NASA Portal
+ Center for Near-Earth Object Studies
JPL Home Earth Solar System Stars & Galaxies Technology
JPL Solar System Dynamics
BODIES ORBITS EPHEMERIDES TOOLS PHYSICAL DATA DISCOVERY FAQ SITE MAP
JPL Small-Body Database Browser
Search: [ help ]  
(2021 CF6)
Classification: Apollo [NEO]          SPK-ID: 54115842
Ephemeris | Orbit Diagram | Orbital Elements | Mission Design | Physical Parameters | Close-Approach Data ]

[ show orbit diagram ]
Orbital Elements at Epoch 2459396.5 (2021-Jul-01.0) TDB
Reference: JPL 24 (heliocentric ecliptic J2000)
 Element Value Uncertainty (1-sigma)   Units 
e .5281120882898311 3.4853e-06  
a 2.080470277058836 1.5356e-05 au
q .9817487744163708 1.7767e-08 au
i 6.925301336915587 2.9828e-05 deg
node 168.569426219649 1.2912e-05 deg
peri 6.579709363789358 2.3805e-05 deg
M 35.50605211127346 0.00038552 deg
tp 2459288.396293268502
(2021-Mar-14.89629327)
2.6562e-05 TDB
period 1096.076080251754
3.00
0.012135
3.322e-05
d
yr
n .3284443538967776 3.6363e-06 deg/d
Q 3.179191779701302 2.3465e-05 au
  Orbit Determination Parameters
   # obs. used (total)      112  
   # delay obs. used      4  
   # Doppler obs. used      1  
   data-arc span      28 days  
   first obs. used      2021-02-09  
   last obs. used      2021-03-09  
   planetary ephem.      DE441  
   SB-pert. ephem.      SB441-N16  
   condition code      4  
   norm. resid. RMS      .35055  
   source      ORB  
   producer      Giorgini  
   solution date      2021-Jul-01 15:38:28  

Additional Information
 Earth MOID = .00743154 au 
 Jupiter MOID = 1.78403 au 
 T_jup = 3.567 
[ show covariance matrix ]

Ephemeris | Orbit Diagram | Orbital Elements | Mission Design | Physical Parameters | Close-Approach Data ]

Physical Parameter Table
Parameter Symbol Value Units Sigma Reference Notes
absolute magnitude H 23.77   .37455 MPO606167 autocmod 2.8

[ show close-approach data ]
Ephemeris | Orbit Diagram | Orbital Elements | Mission Design | Physical Parameters | Close-Approach Data ]
ABOUT SSD CREDITS/AWARDS PRIVACY/COPYRIGHT GLOSSARY LINKS
FirstGov 2021-Jul-31 01:29 UT
(server date/time)  
NASA Home Page
Site Manager:   Ryan S. Park
Webmaster  Alan B. Chamberlin